Date String (YYYY-MM-DD hh:mm:ss) UTC,Instrument flags,Ambient pressure (hPa),Sample flow (lpm),Bypass flow (lpm),Sample temperature (°C),Ambient temperature (°C),ASC tube jacket temperature (°C),LED temperature (°C),Box temperature (°C),Sample RH (%),Span deviation,Mass concentration (μg/m³),Mass concentration (μg/m³),Mass concentration (μg/m³)
DateTimeUTC,F1_M11,P_M11,Q1_M11,Q2_M11,T1_M11,T2_M11,T3_M11,T4_M11,T5_M11,U1_M11,ZSPAN_M11,X0_M11,X2_M11,X1_M11
2022-06-27 16:00:00,,0834.7,5.00,0.00,29.4,27.8,00.0,38.3,31.2,27.2,0000.0,0012.99,0006.13,0005.36
2022-06-27 16:01:00,,0834.7,4.99,0.00,29.4,27.9,00.0,38.3,31.3,27.1,0000.0,0013.22,0006.18,0005.39
2022-06-27 16:02:00,,0834.7,5.00,0.00,29.4,28.0,00.0,38.3,31.3,26.7,0000.0,0014.28,0006.24,0005.43
2022-06-27 16:03:00,,0834.7,5.00,0.00,29.4,28.1,00.0,38.3,31.3,26.6,0000.0,0014.87,0006.25,0005.46
2022-06-27 16:04:00,,0834.7,4.99,0.00,29.4,28.2,00.0,38.3,31.3,26.3,0000.0,0015.16,0006.29,0005.47
2022-06-27 16:05:00,,0834.6,4.99,0.00,29.4,28.3,00.0,38.3,31.4,26.3,0000.0,0015.20,0006.31,0005.48
2022-06-27 16:06:00,,0834.7,5.01,0.00,29.5,28.4,00.0,38.3,31.4,26.4,0000.0,0015.12,0006.31,0005.49
2022-06-27 16:07:00,,0834.6,5.00,0.00,29.5,28.4,00.0,38.3,31.4,26.2,0000.0,0015.67,0006.33,0005.48
2022-06-27 16:08:00,,0834.5,4.99,0.00,29.5,28.5,00.0,38.3,31.4,26.2,0000.0,0015.95,0006.36,0005.48
2022-06-27 16:09:00,,0834.5,5.01,0.00,29.5,28.5,00.0,38.3,31.4,26.2,0000.0,0015.91,0006.40,0005.48
2022-06-27 16:10:00,,0834.5,5.00,0.00,29.5,28.6,00.0,38.3,31.5,26.2,0000.0,0015.92,0006.41,0005.49
2022-06-27 16:11:00,,0834.5,5.00,0.00,29.6,28.6,00.0,38.3,31.5,26.4,0000.0,0015.56,0006.41,0005.47
2022-06-27 16:12:00,,0834.5,5.00,0.00,29.6,28.1,00.0,38.3,31.4,26.7,0000.0,0015.21,0006.41,0005.46
2022-06-27 16:13:00,,0834.5,5.01,0.00,29.5,27.4,00.0,38.2,31.2,26.4,0000.1,0014.70,0006.38,0005.44
2022-06-27 16:14:00,,0834.4,5.00,0.00,29.4,27.2,00.0,38.2,31.1,26.2,0000.9,0014.81,0006.38,0005.43
2022-06-27 16:15:00,,0834.4,5.00,0.00,29.4,27.2,00.0,38.2,31.1,26.4,0000.3,0014.04,0006.34,0005.42
2022-06-27 16:16:00,,0834.4,4.99,0.00,29.3,27.3,00.0,38.2,31.1,26.4,0000.2,0014.12,0006.35,0005.43
2022-06-27 16:17:00,,0834.4,5.00,0.00,29.3,27.5,00.0,38.2,31.1,26.4,-000.1,0015.09,0006.37,0005.42
2022-06-27 16:18:00,,0834.4,4.99,0.00,29.3,27.6,00.0,38.2,31.1,26.3,-000.4,0014.30,0006.34,0005.41
2022-06-27 16:19:00,,0834.4,5.00,0.00,29.3,27.8,00.0,38.2,31.2,26.6,0000.1,0013.57,0006.29,0005.39
2022-06-27 16:20:00,,0834.4,5.01,0.00,29.3,27.9,00.0,38.2,31.2,26.4,0001.0,0013.44,0006.24,0005.36
2022-06-27 16:21:00,,0834.4,5.00,0.00,29.3,28.0,00.0,38.2,31.2,26.3,0000.2,0013.00,0006.19,0005.35
2022-06-27 16:22:00,,0834.4,5.00,0.00,29.3,28.1,00.0,38.2,31.2,26.4,0000.0,0012.86,0006.16,0005.34
2022-06-27 16:23:00,,0834.4,4.99,0.00,29.4,28.2,00.0,38.2,31.3,26.4,0000.0,0012.78,0006.16,0005.34
2022-06-27 16:24:00,,0834.4,5.00,0.00,29.4,28.3,00.0,38.2,31.3,26.3,0000.0,0012.61,0006.13,0005.33
2022-06-27 16:25:00,,0834.4,5.00,0.00,29.4,28.4,00.0,38.2,31.3,26.2,0000.0,0012.31,0006.06,0005.31
2022-06-27 16:26:00,,0834.4,5.00,0.00,29.4,28.4,00.0,38.2,31.4,26.1,0000.0,0013.16,0006.00,0005.29
2022-06-27 16:27:00,,0834.3,5.01,0.00,29.5,28.5,00.0,38.2,31.4,26.0,0000.0,0013.76,0006.00,0005.28
2022-06-27 16:28:00,,0834.3,5.00,0.00,29.5,28.5,00.0,38.2,31.4,26.0,0000.0,0013.78,0005.96,0005.26
2022-06-27 16:29:00,,0834.4,4.99,0.00,29.5,28.1,00.0,38.2,31.3,26.2,0000.0,0013.90,0005.98,0005.25
2022-06-27 16:30:00,,0834.4,5.01,0.00,29.4,27.4,00.0,38.1,31.1,26.1,0000.0,0014.02,0006.03,0005.25
2022-06-27 16:31:00,,0834.3,5.00,0.00,29.3,27.2,00.0,38.1,31.0,26.3,0000.0,0014.03,0006.02,0005.24
2022-06-27 16:32:00,,0834.3,5.00,0.00,29.3,27.2,00.0,38.1,31.0,26.5,0000.0,0014.13,0006.04,0005.22
2022-06-27 16:33:00,,0834.3,4.99,0.00,29.3,27.3,00.0,38.1,31.0,25.9,0000.0,0014.59,0006.03,0005.20
2022-06-27 16:34:00,,0834.3,5.01,0.00,29.2,27.4,00.0,38.1,31.0,26.1,0000.0,0015.68,0006.01,0005.19
2022-06-27 16:35:00,,0834.3,5.01,0.00,29.2,27.6,00.0,38.1,31.1,26.3,0000.0,0016.38,0006.02,0005.19
2022-06-27 16:36:00,,0834.3,5.00,0.00,29.2,27.7,00.0,38.1,31.1,26.3,0000.0,0016.15,0006.07,0005.18
2022-06-27 16:37:00,,0834.3,4.99,0.00,29.3,27.8,00.0,38.1,31.1,26.4,0000.0,0015.49,0006.11,0005.18
2022-06-27 16:38:00,,0834.2,5.00,0.00,29.3,28.0,00.0,38.1,31.2,26.9,0000.0,0015.05,0006.07,0005.16
2022-06-27 16:39:00,,0834.3,5.00,0.00,29.3,28.1,00.0,38.1,31.2,26.9,0000.0,0014.08,0006.08,0005.17
2022-06-27 16:40:00,,0834.3,5.00,0.00,29.3,28.2,00.0,38.1,31.2,27.1,0000.0,0014.82,0006.06,0005.16
2022-06-27 16:41:00,,0834.3,5.01,0.00,29.3,28.3,00.0,38.1,31.3,26.7,0000.0,0015.21,0006.00,0005.15
2022-06-27 16:42:00,,0834.3,4.98,0.00,29.3,28.3,00.0,38.1,31.3,26.2,0000.0,0015.17,0006.01,0005.14
2022-06-27 16:43:00,,0834.3,5.01,0.00,29.4,28.4,00.0,38.1,31.3,26.6,0000.0,0015.07,0005.96,0005.14
2022-06-27 16:44:00,,0834.3,5.01,0.00,29.4,28.4,00.0,38.2,31.3,26.8,0000.0,0014.64,0005.93,0005.13
2022-06-27 16:45:00,,0834.2,5.00,0.00,29.4,28.0,00.0,38.1,31.3,26.5,0000.0,0013.62,0005.96,0005.13
2022-06-27 16:46:00,,0834.2,5.00,0.00,29.3,27.4,00.0,38.0,31.1,26.8,0000.0,0012.82,0005.96,0005.13
2022-06-27 16:47:00,,0834.2,4.99,0.00,29.3,27.2,00.0,38.0,31.0,26.8,0000.0,0012.61,0005.92,0005.13
2022-06-27 16:48:00,,0834.2,5.00,0.00,29.2,27.2,00.0,38.0,31.0,27.4,0000.0,0012.07,0005.90,0005.13
2022-06-27 16:49:00,,0834.2,5.00,0.00,29.2,27.3,00.0,38.0,31.0,26.7,0000.0,0011.90,0005.92,0005.13
2022-06-27 16:50:00,,0834.3,5.01,0.00,29.2,27.4,00.0,38.0,31.0,26.9,0000.0,0012.45,0005.92,0005.11
2022-06-27 16:51:00,,0834.3,4.99,0.00,29.2,27.5,00.0,38.0,31.0,26.3,0000.0,0013.81,0005.92,0005.10
2022-06-27 16:52:00,,0834.3,5.00,0.00,29.2,27.7,00.0,38.0,31.1,26.4,0000.0,0013.20,0005.91,0005.10
2022-06-27 16:53:00,,0834.3,5.00,0.00,29.2,27.8,00.0,38.0,31.1,26.4,0000.0,0013.17,0005.88,0005.08
2022-06-27 16:54:00,,0834.2,5.01,0.00,29.2,27.9,00.0,38.0,31.1,26.7,0000.0,0013.45,0005.86,0005.08
2022-06-27 16:55:00,,0834.2,4.99,0.00,29.2,28.0,00.0,38.0,31.1,27.2,0000.0,0013.48,0005.89,0005.08
2022-06-27 16:56:00,,0834.2,5.01,0.00,29.2,28.1,00.0,38.0,31.2,27.3,0000.0,0014.05,0005.91,0005.09
2022-06-27 16:57:00,,0834.1,5.00,0.00,29.3,28.2,00.0,38.0,31.2,27.1,0000.0,0014.03,0005.92,0005.11
2022-06-27 16:58:00,,0834.1,5.00,0.00,29.3,28.3,00.0,38.0,31.3,27.2,0000.0,0014.74,0005.95,0005.11
2022-06-27 16:59:00,,0834.2,5.00,0.00,29.3,28.4,00.0,38.1,31.3,27.0,0000.0,0016.03,0006.00,0005.13
